27 | 11 | 2022

Klimadaten

Klimadaten von der Klimastation Reinstorf   ( 2m Messungen )  

Datum Zeit Temp.Außen Temp.min Temp.max BodenTemp 1 BodenTemp 2 BodenTemp 3 BodenTemp 4 Feuchte Auße BlattFeu 1 BlattFeu 2 Bod.Feucht 1 Luftdruck Regen Wind Richtung Richtung Sonnenschein Zeit Temp. A ET UV Solar Taupunkt Windchill Windböen
25.11.22 01:00:00 3,7 °C 3,3 °C 3,7 °C 3,3 °C 3,3 °C 3,3 °C 5,0 °C 93,00% 15 lf 0 lf 52 cb 1016,5 hPa 0,0 mm 3,2 km/h (1 Bft) O 90 ° 0 min 0 min 0,000 mm 0,0 UV-I 0 W/m² 2,7 °C 3,3 °C 6,4 km/h (2 Bft)
25.11.22 01:30:00 4,6 °C 3,7 °C 4,6 °C 3,9 °C 3,9 °C 3,3 °C 5,0 °C 94,00% 15 lf 0 lf 53 cb 1016,4 hPa 0,0 mm 3,2 km/h (1 Bft) S-SO 157 ° 0 min 0 min 0,000 mm 0,0 UV-I 0 W/m² 3,7 °C 3,7 °C 9,7 km/h (2 Bft)
25.11.22 02:00:00 4,8 °C 4,5 °C 4,8 °C 3,9 °C 3,9 °C 3,9 °C 5,0 °C 94,00% 15 lf 0 lf 53 cb 1016,3 hPa 0,0 mm 4,8 km/h (1 Bft) S-SO 157 ° 0 min 0 min 0,000 mm 0,0 UV-I 0 W/m² 3,9 °C 3,6 °C 11,3 km/h (2 Bft)
25.11.22 02:30:00 4,8 °C 4,7 °C 4,8 °C 3,9 °C 3,9 °C 3,9 °C 5,0 °C 93,00% 15 lf 0 lf 53 cb 1016,4 hPa 0,0 mm 4,8 km/h (1 Bft) SO 135 ° 0 min 0 min 0,000 mm 0,0 UV-I 0 W/m² 3,8 °C 3,8 °C 14,5 km/h (3 Bft)
25.11.22 03:00:00 4,5 °C 4,5 °C 4,8 °C 3,9 °C 3,9 °C 3,9 °C 5,0 °C 93,00% 15 lf 0 lf 53 cb 1016,4 hPa 0,0 mm 6,4 km/h (2 Bft) S-SO 157 ° 0 min 0 min 0,000 mm 0,0 UV-I 0 W/m² 3,5 °C 3,0 °C 14,5 km/h (3 Bft)
25.11.22 03:30:00 4,2 °C 4,2 °C 4,6 °C 3,3 °C 3,9 °C 3,9 °C 5,0 °C 93,00% 15 lf 0 lf 51 cb 1016,5 hPa 0,0 mm 6,4 km/h (2 Bft) S 180 ° 0 min 0 min 0,000 mm 0,0 UV-I 0 W/m² 3,2 °C 2,7 °C 12,9 km/h (3 Bft)
25.11.22 04:00:00 3,9 °C 3,8 °C 4,3 °C 3,3 °C 3,9 °C 3,9 °C 5,0 °C 93,00% 15 lf 0 lf 52 cb 1016,4 hPa 0,0 mm 4,8 km/h (1 Bft) S-SO 157 ° 0 min 0 min 0,000 mm 0,0 UV-I 0 W/m² 2,9 °C 2,8 °C 11,3 km/h (2 Bft)
25.11.22 04:30:00 3,7 °C 3,7 °C 3,9 °C 2,8 °C 3,9 °C 3,9 °C 5,0 °C 94,00% 15 lf 0 lf 51 cb 1016,3 hPa 0,0 mm 4,8 km/h (1 Bft) SO 135 ° 0 min 0 min 0,000 mm 0,0 UV-I 0 W/m² 2,8 °C 2,7 °C 11,3 km/h (2 Bft)
25.11.22 05:00:00 3,7 °C 3,6 °C 3,7 °C 2,8 °C 3,9 °C 3,9 °C 5,0 °C 94,00% 15 lf 0 lf 51 cb 1016,1 hPa 0,0 mm 4,8 km/h (1 Bft) SO 135 ° 0 min 0 min 0,000 mm 0,0 UV-I 0 W/m² 2,8 °C 2,6 °C 12,9 km/h (3 Bft)
25.11.22 05:30:00 3,6 °C 3,6 °C 3,7 °C 2,8 °C 3,9 °C 3,9 °C 5,0 °C 94,00% 15 lf 0 lf 51 cb 1016,4 hPa 0,0 mm 4,8 km/h (1 Bft) SO 135 ° 0 min 0 min 0,000 mm 0,0 UV-I 0 W/m² 2,7 °C 2,6 °C 11,3 km/h (2 Bft)
25.11.22 06:00:00 3,5 °C 3,4 °C 3,6 °C 2,8 °C 3,9 °C 3,9 °C 5,0 °C 94,00% 15 lf 0 lf 51 cb 1016,4 hPa 0,0 mm 6,4 km/h (2 Bft) O-SO 112 ° 0 min 0 min 0,000 mm 0,0 UV-I 0 W/m² 2,6 °C 1,7 °C 12,9 km/h (3 Bft)
25.11.22 06:30:00 3,3 °C 3,3 °C 3,6 °C 2,8 °C 3,9 °C 3,9 °C 5,0 °C 94,00% 15 lf 0 lf 51 cb 1016,5 hPa 0,0 mm 4,8 km/h (1 Bft) O-SO 112 ° 0 min 0 min 0,000 mm 0,0 UV-I 0 W/m² 2,4 °C 2,2 °C 12,9 km/h (3 Bft)
25.11.22 07:00:00 3,2 °C 3,1 °C 3,3 °C 2,8 °C 3,9 °C 3,9 °C 5,0 °C 94,00% 15 lf 0 lf 51 cb 1016,7 hPa 0,0 mm 4,8 km/h (1 Bft) O-SO 112 ° 0 min 0 min 0,000 mm 0,0 UV-I 0 W/m² 2,3 °C 2,0 °C 12,9 km/h (3 Bft)
25.11.22 07:30:00 3,1 °C 3,1 °C 3,2 °C 2,8 °C 3,9 °C 3,9 °C 5,0 °C 94,00% 15 lf 0 lf 51 cb 1017,1 hPa 0,0 mm 4,8 km/h (1 Bft) SO 135 ° 0 min 0 min 0,000 mm 0,0 UV-I 0 W/m² 2,2 °C 2,0 °C 9,7 km/h (2 Bft)
25.11.22 08:00:00 3,0 °C 2,9 °C 3,2 °C 2,2 °C 3,9 °C 3,9 °C 5,0 °C 94,00% 15 lf 0 lf 50 cb 1017,1 hPa 0,0 mm 4,8 km/h (1 Bft) O-SO 112 ° 0 min 0 min 0,000 mm 0,0 UV-I 0 W/m² 2,1 °C 1,8 °C 12,9 km/h (3 Bft)
25.11.22 08:30:00 2,9 °C 2,9 °C 3,0 °C 2,8 °C 3,9 °C 3,9 °C 5,0 °C 94,00% 15 lf 100 lf 51 cb 1017,4 hPa 0,0 mm 4,8 km/h (1 Bft) O-SO 112 ° 15 min 0 min 0,000 mm 0,0 UV-I 9 W/m² 2,0 °C 1,8 °C 12,9 km/h (3 Bft)
25.11.22 09:00:00 2,9 °C 2,8 °C 2,9 °C 2,8 °C 3,9 °C 3,9 °C 5,0 °C 94,00% 15 lf 100 lf 51 cb 1017,4 hPa 0,0 mm 6,4 km/h (2 Bft) SO 135 ° 15 min 0 min 0,000 mm 0,0 UV-I 23 W/m² 2,0 °C 1,1 °C 14,5 km/h (3 Bft)
25.11.22 09:30:00 3,2 °C 2,9 °C 3,2 °C 3,3 °C 3,9 °C 3,9 °C 5,0 °C 94,00% 15 lf 100 lf 52 cb 1017,5 hPa 0,0 mm 6,4 km/h (2 Bft) O-SO 112 ° 15 min 0 min 0,000 mm 0,0 UV-I 43 W/m² 2,3 °C 1,2 °C 17,7 km/h (3 Bft)
25.11.22 10:00:00 3,6 °C 3,2 °C 3,6 °C 3,3 °C 4,4 °C 3,9 °C 5,0 °C 94,00% 15 lf 100 lf 52 cb 1017,5 hPa 0,0 mm 6,4 km/h (2 Bft) O-SO 112 ° 15 min 0 min 0,025 mm 0,0 UV-I 46 W/m² 2,7 °C 1,5 °C 14,5 km/h (3 Bft)
25.11.22 10:30:00 4,2 °C 3,6 °C 4,2 °C 4,4 °C 4,4 °C 3,9 °C 5,0 °C 94,00% 15 lf 100 lf 53 cb 1017,7 hPa 0,0 mm 6,4 km/h (2 Bft) SO 135 ° 15 min 0 min 0,000 mm 0,0 UV-I 56 W/m² 3,3 °C 2,0 °C 14,5 km/h (3 Bft)
25.11.22 11:00:00 4,7 °C 4,2 °C 4,7 °C 5,0 °C 5,0 °C 4,4 °C 5,0 °C 95,00% 15 lf 100 lf 54 cb 1017,7 hPa 0,0 mm 8,0 km/h (2 Bft) SO 135 ° 15 min 0 min 0,025 mm 0,0 UV-I 70 W/m² 4,0 °C 2,2 °C 17,7 km/h (3 Bft)
25.11.22 11:30:00 5,1 °C 4,7 °C 5,1 °C 5,6 °C 5,6 °C 4,4 °C 5,0 °C 95,00% 15 lf 100 lf 55 cb 1017,4 hPa 0,0 mm 8,0 km/h (2 Bft) O-SO 112 ° 15 min 0 min 0,000 mm 0,0 UV-I 88 W/m² 4,4 °C 2,8 °C 19,3 km/h (3 Bft)
25.11.22 12:00:00 5,3 °C 5,1 °C 5,4 °C 5,6 °C 5,6 °C 5,0 °C 5,0 °C 95,00% 15 lf 100 lf 54 cb 1017,5 hPa 0,0 mm 8,0 km/h (2 Bft) O-SO 112 ° 15 min 0 min 0,051 mm 0,0 UV-I 77 W/m² 4,6 °C 3,3 °C 19,3 km/h (3 Bft)
25.11.22 12:30:00 5,6 °C 5,3 °C 5,6 °C 6,1 °C 5,6 °C 5,0 °C 5,0 °C 95,00% 15 lf 100 lf 55 cb 1017,6 hPa 0,0 mm 8,0 km/h (2 Bft) O-SO 112 ° 15 min 0 min 0,000 mm 0,0 UV-I 59 W/m² 4,9 °C 3,5 °C 16,1 km/h (3 Bft)
25.11.22 13:00:00 5,7 °C 5,6 °C 5,8 °C 5,6 °C 5,6 °C 5,0 °C 5,0 °C 95,00% 15 lf 100 lf 54 cb 1017,8 hPa 0,0 mm 8,0 km/h (2 Bft) O-SO 112 ° 15 min 0 min 0,025 mm 0,0 UV-I 51 W/m² 5,0 °C 3,8 °C 17,7 km/h (3 Bft)
25.11.22 13:30:00 5,9 °C 5,7 °C 5,9 °C 5,6 °C 5,6 °C 5,0 °C 5,0 °C 94,00% 15 lf 100 lf 54 cb 1017,7 hPa 0,0 mm 6,4 km/h (2 Bft) O-SO 112 ° 15 min 0 min 0,000 mm 0,0 UV-I 29 W/m² 5,0 °C 4,4 °C 16,1 km/h (3 Bft)
25.11.22 14:00:00 6,1 °C 5,8 °C 6,1 °C 6,1 °C 5,6 °C 5,0 °C 5,0 °C 95,00% 15 lf 100 lf 54 cb 1017,6 hPa 0,0 mm 8,0 km/h (2 Bft) O-SO 112 ° 15 min 0 min 0,025 mm 0,0 UV-I 33 W/m² 5,4 °C 4,1 °C 16,1 km/h (3 Bft)
25.11.22 14:30:00 6,1 °C 6,0 °C 6,2 °C 5,6 °C 5,6 °C 5,0 °C 5,0 °C 94,00% 15 lf 100 lf 54 cb 1017,7 hPa 0,0 mm 6,4 km/h (2 Bft) SO 135 ° 15 min 0 min 0,000 mm 0,0 UV-I 23 W/m² 5,2 °C 4,7 °C 16,1 km/h (3 Bft)
25.11.22 15:00:00 6,2 °C 6,1 °C 6,2 °C 5,6 °C 5,6 °C 5,0 °C 5,6 °C 94,00% 15 lf 100 lf 54 cb 1017,9 hPa 0,0 mm 6,4 km/h (2 Bft) SO 135 ° 15 min 0 min 0,000 mm 0,0 UV-I 13 W/m² 5,3 °C 4,9 °C 14,5 km/h (3 Bft)
25.11.22 15:30:00 6,0 °C 6,0 °C 6,2 °C 5,6 °C 5,6 °C 5,0 °C 5,6 °C 94,00% 15 lf 100 lf 54 cb 1018,2 hPa 0,0 mm 6,4 km/h (2 Bft) SO 135 ° 15 min 0 min 0,000 mm 0,0 UV-I 8 W/m² 5,1 °C 4,7 °C 12,9 km/h (3 Bft)
25.11.22 16:00:00 5,8 °C 5,8 °C 6,0 °C 5,0 °C 5,6 °C 5,0 °C 5,6 °C 94,00% 15 lf 0 lf 52 cb 1018,5 hPa 0,0 mm 6,4 km/h (2 Bft) SO 135 ° 0 min 0 min 0,000 mm 0,0 UV-I 0 W/m² 4,9 °C 4,5 °C 16,1 km/h (3 Bft)
25.11.22 16:30:00 5,7 °C 5,7 °C 5,9 °C 5,0 °C 5,6 °C 5,0 °C 5,6 °C 94,00% 15 lf 0 lf 52 cb 1018,8 hPa 1,0 mm 4,8 km/h (1 Bft) SO 135 ° 0 min 15 min 0,000 mm 0,0 UV-I 0 W/m² 4,8 °C 5,0 °C 11,3 km/h (2 Bft)
25.11.22 17:00:00 5,7 °C 5,7 °C 5,8 °C 5,0 °C 5,6 °C 5,0 °C 5,6 °C 94,00% 15 lf 0 lf 52 cb 1019,0 hPa 1,5 mm 4,8 km/h (1 Bft) SO 135 ° 0 min 15 min 0,000 mm 0,0 UV-I 0 W/m² 4,8 °C 5,0 °C 12,9 km/h (3 Bft)
25.11.22 17:30:00 5,7 °C 5,7 °C 5,8 °C 5,0 °C 5,6 °C 5,0 °C 5,6 °C 94,00% 13 lf 0 lf 50 cb 1019,2 hPa 3,6 mm 4,8 km/h (1 Bft) O 90 ° 0 min 15 min 0,000 mm 0,0 UV-I 0 W/m² 4,8 °C 5,0 °C 11,3 km/h (2 Bft)
25.11.22 18:00:00 5,7 °C 5,7 °C 5,8 °C 5,0 °C 5,6 °C 5,0 °C 5,6 °C 94,00% 15 lf 0 lf 49 cb 1019,3 hPa 1,5 mm 3,2 km/h (1 Bft) O 90 ° 0 min 15 min 0,000 mm 0,0 UV-I 0 W/m² 4,8 °C 5,7 °C 8,0 km/h (2 Bft)
25.11.22 18:30:00 5,7 °C 5,7 °C 5,8 °C 5,0 °C 5,6 °C 5,0 °C 5,6 °C 95,00% 15 lf 0 lf 48 cb 1019,5 hPa 0,5 mm 3,2 km/h (1 Bft) SO 135 ° 0 min 15 min 0,000 mm 0,0 UV-I 0 W/m² 5,0 °C 5,7 °C 8,0 km/h (2 Bft)
25.11.22 19:00:00 5,8 °C 5,7 °C 5,8 °C 5,0 °C 5,6 °C 5,0 °C 5,6 °C 94,00% 15 lf 0 lf 47 cb 1019,9 hPa 1,0 mm 3,2 km/h (1 Bft) SO 135 ° 0 min 15 min 0,000 mm 0,0 UV-I 0 W/m² 4,9 °C 5,7 °C 8,0 km/h (2 Bft)
25.11.22 19:30:00 5,8 °C 5,8 °C 5,8 °C 5,0 °C 5,6 °C 5,0 °C 5,6 °C 94,00% 15 lf 0 lf 46 cb 1020,0 hPa 0,5 mm 3,2 km/h (1 Bft) SO 135 ° 0 min 15 min 0,000 mm 0,0 UV-I 0 W/m² 4,9 °C 5,8 °C 8,0 km/h (2 Bft)
25.11.22 20:00:00 5,8 °C 5,8 °C 5,8 °C 5,0 °C 5,6 °C 5,0 °C 5,6 °C 94,00% 15 lf 0 lf 46 cb 1020,4 hPa 0,5 mm 3,2 km/h (1 Bft) S-SO 157 ° 0 min 15 min 0,000 mm 0,0 UV-I 0 W/m² 4,9 °C 5,8 °C 6,4 km/h (2 Bft)
25.11.22 20:30:00 5,8 °C 5,8 °C 5,8 °C 5,0 °C 5,6 °C 5,0 °C 5,6 °C 94,00% 15 lf 0 lf 46 cb 1020,7 hPa 1,0 mm 1,6 km/h (1 Bft) S-SO 157 ° 0 min 15 min 0,000 mm 0,0 UV-I 0 W/m² 4,9 °C 5,8 °C 6,4 km/h (2 Bft)
25.11.22 21:00:00 5,8 °C 5,8 °C 5,9 °C 5,0 °C 5,6 °C 5,0 °C 5,6 °C 94,00% 15 lf 0 lf 46 cb 1020,9 hPa 0,0 mm 1,6 km/h (1 Bft) SO 135 ° 0 min 0 min 0,000 mm 0,0 UV-I 0 W/m² 4,9 °C 5,8 °C 4,8 km/h (1 Bft)
25.11.22 21:30:00 5,9 °C 5,8 °C 5,9 °C 5,0 °C 5,6 °C 5,0 °C 5,6 °C 94,00% 15 lf 0 lf 46 cb 1021,4 hPa 0,0 mm 3,2 km/h (1 Bft) O-SO 112 ° 0 min 0 min 0,000 mm 0,0 UV-I 0 W/m² 5,0 °C 5,8 °C 4,8 km/h (1 Bft)
25.11.22 22:00:00 5,9 °C 5,9 °C 5,9 °C 5,0 °C 5,6 °C 5,0 °C 5,6 °C 95,00% 15 lf 0 lf 46 cb 1021,7 hPa 0,0 mm 3,2 km/h (1 Bft) SO 135 ° 0 min 0 min 0,000 mm 0,0 UV-I 0 W/m² 5,2 °C 5,9 °C 6,4 km/h (2 Bft)
25.11.22 22:30:00 5,9 °C 5,9 °C 6,0 °C 5,0 °C 5,6 °C 5,0 °C 5,6 °C 95,00% 15 lf 0 lf 46 cb 1021,8 hPa 0,0 mm 3,2 km/h (1 Bft) O-SO 112 ° 0 min 0 min 0,000 mm 0,0 UV-I 0 W/m² 5,2 °C 5,9 °C 11,3 km/h (2 Bft)
25.11.22 23:00:00 6,0 °C 5,9 °C 6,0 °C 5,0 °C 5,6 °C 5,0 °C 5,6 °C 95,00% 15 lf 0 lf 47 cb 1022,1 hPa 0,0 mm 3,2 km/h (1 Bft) S-SW 202 ° 0 min 0 min 0,000 mm 0,0 UV-I 0 W/m² 5,3 °C 5,9 °C 6,4 km/h (2 Bft)
25.11.22 23:30:00 6,0 °C 5,9 °C 6,1 °C 5,0 °C 5,6 °C 5,0 °C 5,6 °C 95,00% 15 lf 0 lf 47 cb 1022,4 hPa 0,0 mm 3,2 km/h (1 Bft) S 180 ° 0 min 0 min 0,000 mm 0,0 UV-I 0 W/m² 5,3 °C 5,9 °C 8,0 km/h (2 Bft)
26.11.22 00:00:00 6,0 °C 5,9 °C 6,1 °C 5,0 °C 5,6 °C 5,0 °C 5,6 °C 95,00% 15 lf 0 lf 47 cb 1022,7 hPa 0,0 mm 3,2 km/h (1 Bft) O-SO 112 ° 0 min 0 min 0,000 mm 0,0 UV-I 0 W/m² 5,3 °C 5,9 °C 4,8 km/h (1 Bft)
_ Min-Zeit 09:00:00 09:00:00 09:00:00 08:00:00 01:00:00 01:30:00 14:30:00 04:00:00 17:30:00 00:00:00 22:30:00 05:00:00 - 21:00:00 - - - - - - - 09:00:00 09:00:00 00:00:00
Minimum _ 2,8 °C 2,8 °C 2,9 °C 2,2 °C 3,3 °C 3,3 °C 5,0 °C 93,00% 13 lf 0 lf 46 cb 1016,1 hPa - 1,6 km/h (1 Bft) - - - - - - - 2,0 °C 1,1 °C 4,8 km/h (1 Bft)
_ Max-Zeit 15:00:00 15:00:00 15:30:00 14:00:00 00:00:00 00:00:00 00:00:00 00:00:00 00:00:00 15:30:00 12:30:00 00:00:00 17:30:00 14:00:00 - - 15:30:00 20:30:00 12:00:00 00:00:00 11:30:00 14:00:00 00:00:00 12:00:00
Maximum _ 6,2 °C 6,1 °C 6,2 °C 6,1 °C 5,6 °C 5,0 °C 5,6 °C 95,00% 15 lf 100 lf 55 cb 1022,7 hPa 3,6 mm 8,0 km/h - - 15 min 15 min 0,051 mm 0,0 UV-I 88 W/m² 5,4 °C 5,9 °C 19,3 km/h
O-SO (2 Bft) SO (3 Bft)
Durchschnitt _ 4,9 °C 4,7 °C 5,0 °C 4,3 °C 4,8 °C 4,5 °C 5,2 °C 94,00% 15 lf 31 lf 51 cb 1018,3 hPa #11,2 mm 5,0 km/h (1 Bft) SO - #0 min. #0 min. #0,000 mm 0,0 UV-I 0 W/m² 4,0 °C 3,8 °C 11,8 km/h (2 Bft)

                                                                                                                                                                          _________________________________________________________________________________________________________________________________________________________________________

 Anomalie Daten

ausgewähltes Produkt zur Leistung: Zeitreihen und Trends
 
ausgewähltes Produkt zur Leistung:

 

 

ausgewähltes Produkt zur Leistung: Zeitreihen und Trends

Absolut Daten

ausgewähltes Produkt zur Leistung: Zeitreihen und Trends
ausgewähltes Produkt zur Leistung: Zeitreihen und Trends

 

ausgewähltes Produkt zur Leistung: Zeitreihen und Trends

 

2009 - 2022

Unwetterwarnungen

Unwetterwarnungen

  Überblick über die aktuelle Warnlage in Deutschland

  Radarbild           

aktueller Radarfilm Deutschland

Mecklenburg Vorpommern/

Brandenburg

aktuelles Wetter und aktuelle Temperatur Region Nordost

Waldbrandgefahr   

Deutschlandkarte mit dem Tageswert des Waldbrand-Gefahrenindex WBI, heute